Regional Weather Roundup
Issued by NWS

Home | Current Version | Previous Version | Text Only | Print | Product List | Glossary Off
Versions: 1 2 3 4 5 6 7 8 9 10 11 12 13 14 15 16 17 18 19 20 21 22 23 24 25 26 27 28 29 30 31 32 33 34 35 36 37 38 39 40 41 42 43 44 45 46 47 48 49 50

000
ASUS43 KFSD 161302
RWRSD

WEATHER ROUNDUP FOR SOUTH DAKOTA
NATIONAL WEATHER SERVICE SIOUX FALLS SD
800 AM CDT WED AUG 16 2017

NOTE: "FAIR" INDICATES FEW OR NO CLOUDS BELOW 12,000 FEET WITH NO
SIGNIFICANT WEATHER AND/OR OBSTRUCTIONS TO VISIBILITY.


SDZ001>005-009-010-012>017-161400-
NORTHWEST AND NORTH CENTRAL SOUTH DAKOTA

CITY           SKY/WX    TMP DP  RH WIND       PRES   REMARKS
BUFFALO          N/A     53  52  96 W6        29.93R
FAITH            N/A     60  60 100 N13       29.94R
MOBRIDGE       CLOUDY    64  60  87 N14       29.86R
$$

SDZ012>016-024>037-041>051-057-063-072>074-161400-
SOUTHWEST AND SOUTH CENTRAL SOUTH DAKOTA

CITY           SKY/WX    TMP DP  RH WIND       PRES   REMARKS
RAPID CTY ARPT CLOUDY    60  55  83 N12       29.97R
PIERRE         CLOUDY    64  62  93 N14       29.85R
CUSTER         CLOUDY    54  44  69 N9        30.06R
ELLSWORTH AFB  CLOUDY    60  55  84 N12       29.97R
PHILIP         CLOUDY    63  61  93 N10       29.92R
PINE RIDGE     CLOUDY    60  59  96 NW6       29.97R
SPEARFISH      FAIR      55  52  88 W5        30.04R
WINNER         CLOUDY    67  65  93 W5        29.84R
$$

SDZ004>011-016>023-039-040-161400-
NORTHEAST SOUTH DAKOTA

CITY           SKY/WX    TMP DP  RH WIND       PRES   REMARKS
ABERDEEN       CLOUDY    66  65  96 CALM      29.81F FOG
WATERTOWN      CLOUDY    66  65  96 CALM      29.84S
BROOKINGS      CLOUDY    65  64  97 N3        29.84F
SISSETON         N/A     65  65 100 SE6       29.83S
$$

SDZ017-020-022-023-036>040-048>070-161400-
SOUTHEAST SOUTH DAKOTA

CITY           SKY/WX    TMP DP  RH WIND       PRES   REMARKS
SIOUX FALLS    LGT RAIN  66  66 100 E5        29.84S FOG
HURON          LGT RAIN  66  66 100 CALM      29.82R
CHAMBERLAIN    CLOUDY    65  65 100 E3        29.84R
MITCHELL       LGT RAIN  66  65  96 NE6       29.82R FOG
YANKTON        LGT RAIN  65  64  97 NE3       29.82R
$$

ABBREVIATIONS USED IN REMARKS
   TC - TEMPERATURE IN CELSIUS
  WCI - WIND CHILL INDEX
   HX - HEAT INDEX
  VSB - VISIBILITY





USA.gov is the U.S. government's official web portal to all federal, state and local government web resources and services.